Satellite-Ground Cal/Val Site Overpasses Predictions

Prediction of Satellite NPP Overpassing Cal/Val Site: Antarctic Dome C

Ground Cal/Val Site Location: Latitude: -75.10, Longitude: 123.35; Satellite-Ground Site NADIR distance within 100 km.

Table of predicted overpasses for the next 14.0 days since TLE Epoch: 1/31/2014
Interval Starting Time Ending Time Minimum Distance Time Minimum Distance (km)
1 02/01/2014 14:51:43 02/01/2014 14:52:12 02/01/2014 14:51:57 9.25
2 02/03/2014 07:34:34 02/03/2014 07:35:04 02/03/2014 07:34:49 4.53
3 02/06/2014 14:58:07 02/06/2014 14:58:35 02/06/2014 14:58:21 27.60
4 02/07/2014 14:39:23 02/07/2014 14:39:41 02/07/2014 14:39:32 79.51
5 02/08/2014 07:40:58 02/08/2014 07:41:26 02/08/2014 07:41:12 31.51
6 02/09/2014 07:22:14 02/09/2014 07:22:32 02/09/2014 07:22:23 78.44
7 02/11/2014 15:04:31 02/11/2014 15:04:54 02/11/2014 15:04:43 64.61
8 02/12/2014 14:45:42 02/12/2014 14:46:08 02/12/2014 14:45:55 44.72
9 02/13/2014 07:47:24 02/13/2014 07:47:45 02/13/2014 07:47:35 66.73
